Regional Weather Roundup
Issued by NWS

Home | Current Version | Previous Version | Text Only | Print | Product List | Glossary On
Versions: 1 2 3 4 5 6 7 8 9 10 11 12 13 14 15 16 17 18 19 20 21 22 23 24 25 26 27 28 29 30 31 32 33 34 35 36 37 38 39 40 41 42 43 44 45 46 47 48 49 50
000
ASUS43 KFSD 031310
RWRSD

WEATHER ROUNDUP FOR SOUTH DAKOTA
NATIONAL WEATHER SERVICE SIOUX FALLS SD
800 AM CDT WED JUN 03 2015

NOTE: "FAIR" INDICATES FEW OR NO CLOUDS BELOW 12,000 FEET WITH NO
SIGNIFICANT WEATHER AND/OR OBSTRUCTIONS TO VISIBILITY.


SDZ001>005-009-010-012>017-031400-
NORTHWEST AND NORTH CENTRAL SOUTH DAKOTA

CITY           SKY/WX    TMP DP  RH WIND       PRES   REMARKS
BUFFALO          N/A     53  49  86 N15       29.94R
FAITH            N/A     57  49  74 N18G25    29.96R
MOBRIDGE       CLOUDY    59  55  87 NW20G25   29.89R
$$

SDZ012>016-024>037-041>051-057-063-072>074-031400-
SOUTHWEST AND SOUTH CENTRAL SOUTH DAKOTA

CITY           SKY/WX    TMP DP  RH WIND       PRES   REMARKS
RAPID CTY ARPT SUNNY     56  52  86 N15       29.98R
PIERRE         PTSUNNY   59  55  87 NW12      29.90R
CUSTER         SUNNY     54  32  43 CALM      30.06R
ELLSWORTH AFB  MOSUNNY   55  53  92 NW13      29.98
PHILIP         CLOUDY    57  53  86 N14       29.97R
PINE RIDGE     SUNNY     55  52  89 CALM      30.00R
SPEARFISH      FAIR      54  52  94 NW8       30.04R
WINNER         FAIR      62  54  74 NW7       29.90R
$$

SDZ004>011-016>023-039-040-031400-
NORTHEAST SOUTH DAKOTA

CITY           SKY/WX    TMP DP  RH WIND       PRES   REMARKS
ABERDEEN       CLOUDY    62  57  83 W7        29.84R
WATERTOWN      CLOUDY    65  62  90 W12       29.80F
BROOKINGS      CLOUDY    64  63  94 NW28G43   29.77F
SISSETON         N/A     66  63  90 NW7       29.77R
$$

SDZ017-020-022-023-036>040-048>070-031400-
SOUTHEAST SOUTH DAKOTA

CITY           SKY/WX    TMP DP  RH WIND       PRES   REMARKS
SIOUX FALLS    CLOUDY    64  62  93 SW5       29.80S
HURON          LGT RAIN  63  62  97 NW7       29.83S FOG
CHAMBERLAIN    CLOUDY    64  59  85 N14G24    29.86R
MITCHELL       LGT RAIN  67  62  84 N12       29.83R
YANKTON        CLOUDY    64  61  88 SW8       29.84R
$$

ABBREVIATIONS USED IN REMARKS
   TC - TEMPERATURE IN CELSIUS
  WCI - WIND CHILL INDEX
   HX - HEAT INDEX
  VSB - VISIBILITY



USA.gov is the U.S. government's official web portal to all federal, state and local government web resources and services.